Decatur, TX

2:19 AM CDT on September 30, 2016 (GMT -0500)
Decatur

Weather History for KLUD - February, 2013

Change the Weather History Date:

Wednesday, February 20, 2013

  Actual Average (KDTO) Record (KDTO)
Temperature  
Mean Temperature 40 °F -  
Max Temperature 46 °F 58 °F 82 °F (2005)
Min Temperature 35 °F 37 °F 30 °F (2006)
Degree Days  
Heating Degree Days 24    
Moisture  
Dew Point 36 °F    
Average Humidity 85    
Maximum Humidity 100    
Minimum Humidity 57    
Precipitation  
Precipitation 0.31 in - - ()
Sea Level Pressure  
Sea Level Pressure 30.08 in    
Wind  
Wind Speed 11 mph (East)    
Max Wind Speed 21 mph    
Max Gust Speed 29 mph    
Visibility 9 miles    
Events Rain    
Averages and records for this station are not official NWS values.
T = Trace of Precipitation, MM = Missing Value Source: NWS Daily Summary

Daily Weather History Graph

Daily Weather History Graph

Search for Another Location

Airport or City:

Trip Planner

Search our weather history database for the weather conditions in past years. The results will help you decide how hot, cold, wet, or windy it might be!

Date:

Astronomy

Feb. 20, 2013 Rise Set
Actual Time 7:08 AM CST 6:19 PM CST
Civil Twilight 6:43 AM CST 6:45 PM CST
Nautical Twilight 6:14 AM CST 7:14 PM CST
Astronomical Twilight 5:45 AM CST 7:42 PM CST
Moon 1:51 PM CST (2/20) 3:20 AM CST (2/20)
Length of Visible Light 12h 01m
Length of Day
11h 11m
Waxing Gibbous, 76% of the Moon is Illuminated
Feb 20
Waxing Gibbous
Feb 25
Full
Mar 4
Last Quarter
Mar 11
New
Mar 19
First Quarter

Hourly Weather History & Observations

Time (CST) Temp. Windchill Dew Point Humidity Pressure Visibility Wind Dir Wind Speed Gust Speed Precip Events Conditions
12:15 AM 46.4 °F 43.5 °F 32.0 °F 57% 30.16 in 10.0 mi East 5.8 mph - N/A   Scattered Clouds
12:35 AM 46.4 °F 42.9 °F 33.8 °F 62% 30.17 in 10.0 mi East 6.9 mph - N/A   Light Drizzle
12:55 AM 44.6 °F 41.4 °F 33.8 °F 66% 30.16 in 10.0 mi East 5.8 mph - N/A Rain Light Rain
1:15 AM 42.8 °F 39.3 °F 33.8 °F 70% 30.16 in 10.0 mi East 5.8 mph - 0.01 in Rain Rain
1:35 AM 41.0 °F 37.1 °F 33.8 °F 76% 30.15 in 10.0 mi East 5.8 mph - 0.03 in Rain Light Rain
1:55 AM 41.0 °F 36.4 °F 35.6 °F 81% 30.16 in 7.0 mi East 6.9 mph - 0.05 in Rain Light Rain
2:15 AM 41.0 °F 35.8 °F 35.6 °F 81% 30.15 in 7.0 mi East 8.1 mph - 0.02 in Rain Light Rain
2:55 AM 39.2 °F 33.0 °F 35.6 °F 87% 30.13 in 10.0 mi East 9.2 mph - 0.04 in   Overcast
3:15 AM 41.0 °F - 35.6 °F 81% 30.22 in 7.0 mi Calm Calm - 0.02 in Rain Rain
3:35 AM 41.0 °F 35.8 °F 37.4 °F 87% 30.16 in 7.0 mi East 8.1 mph - 0.06 in Rain Rain
3:55 AM 41.0 °F 34.3 °F 37.4 °F 87% 30.14 in 7.0 mi East 11.5 mph - 0.11 in Rain Light Rain
4:15 AM 39.2 °F 31.6 °F 37.4 °F 93% 30.11 in 7.0 mi East 12.7 mph 16.1 mph 0.05 in Rain Rain
4:35 AM 39.2 °F 31.2 °F 37.4 °F 93% 30.09 in 4.0 mi East 13.8 mph 18.4 mph 0.09 in Rain Light Rain
4:55 AM 37.4 °F 29.3 °F 37.4 °F 100% 30.07 in 10.0 mi East 12.7 mph - 0.09 in Rain Light Rain
5:15 AM 37.4 °F 28.5 °F 35.6 °F 93% 30.05 in 10.0 mi East 15.0 mph 18.4 mph N/A   Overcast
5:35 AM 37.4 °F 30.8 °F 35.6 °F 93% 30.06 in 10.0 mi East 9.2 mph - N/A   Overcast
5:55 AM 39.2 °F 31.6 °F 37.4 °F 93% 30.08 in 10.0 mi East 12.7 mph 17.3 mph N/A   Overcast
6:15 AM 39.2 °F 31.2 °F 37.4 °F 93% 30.07 in 10.0 mi ENE 13.8 mph - N/A   Overcast
6:35 AM 39.2 °F 32.0 °F 35.6 °F 87% 30.11 in 10.0 mi ENE 11.5 mph - N/A   Overcast
7:15 AM 39.2 °F 33.6 °F 37.4 °F 93% 30.18 in 10.0 mi NNE 8.1 mph - N/A   Mostly Cloudy
7:35 AM 35.6 °F 26.2 °F 35.6 °F 100% 30.12 in 7.0 mi ENE 15.0 mph - N/A Rain Light Rain
7:55 AM 37.4 °F 27.8 °F 35.6 °F 93% 30.12 in 7.0 mi East 17.3 mph 21.9 mph 0.02 in Rain Light Rain
8:35 AM 37.4 °F 27.5 °F 35.6 °F 93% 30.10 in 10.0 mi East 18.4 mph 23.0 mph N/A   Overcast
8:55 AM 37.4 °F 27.8 °F 35.6 °F 93% 30.12 in 10.0 mi East 17.3 mph 25.3 mph N/A   Overcast
9:15 AM 37.4 °F 28.5 °F 37.4 °F 100% 30.13 in 10.0 mi ENE 15.0 mph - N/A   Overcast
9:35 AM 39.2 °F 30.2 °F 37.4 °F 93% 30.09 in 10.0 mi East 17.3 mph 24.2 mph N/A   Overcast
9:55 AM 41.0 °F 32.2 °F 37.4 °F 87% 30.08 in 10.0 mi East 18.4 mph 27.6 mph N/A   Overcast
10:15 AM 41.0 °F 31.6 °F 37.4 °F 87% 30.06 in 10.0 mi East 20.7 mph 28.8 mph N/A   Overcast
10:35 AM 41.0 °F 33.1 °F 37.4 °F 87% 30.06 in 10.0 mi East 15.0 mph 26.5 mph N/A   Overcast
10:55 AM 41.0 °F 32.2 °F 37.4 °F 87% 30.06 in 10.0 mi East 18.4 mph 28.8 mph N/A   Overcast
11:15 AM 41.0 °F 32.8 °F 37.4 °F 87% 30.07 in 10.0 mi East 16.1 mph 26.5 mph N/A   Overcast
11:35 AM 41.0 °F 32.2 °F 37.4 °F 87% 30.06 in 10.0 mi East 18.4 mph 25.3 mph N/A   Mostly Cloudy
11:55 AM 41.0 °F 32.2 °F 37.4 °F 87% 30.04 in 10.0 mi ESE 18.4 mph 26.5 mph N/A   Mostly Cloudy
12:15 PM 41.0 °F 33.5 °F 37.4 °F 87% 30.04 in 10.0 mi East 13.8 mph 23.0 mph N/A   Overcast
12:35 PM 42.8 °F 35.1 °F 37.4 °F 81% 30.03 in 10.0 mi ESE 16.1 mph 21.9 mph N/A   Overcast
12:55 PM 42.8 °F 34.3 °F 37.4 °F 81% 30.01 in 10.0 mi ESE 19.6 mph 24.2 mph N/A   Overcast
1:15 PM 42.8 °F 34.0 °F 35.6 °F 76% 30.00 in 10.0 mi ESE 20.7 mph 25.3 mph N/A   Overcast
1:35 PM 42.8 °F 35.8 °F 35.6 °F 76% 30.00 in 10.0 mi ESE 13.8 mph 23.0 mph N/A   Overcast
1:55 PM 41.0 °F 32.8 °F 35.6 °F 81% 29.99 in 10.0 mi East 16.1 mph 21.9 mph N/A   Overcast
2:15 PM 41.0 °F 33.5 °F 35.6 °F 81% 29.98 in 10.0 mi East 13.8 mph 21.9 mph N/A   Overcast
2:35 PM 41.0 °F 32.2 °F 35.6 °F 81% 29.96 in 10.0 mi East 18.4 mph 24.2 mph N/A   Overcast
2:55 PM 42.8 °F 34.3 °F 35.6 °F 76% 29.95 in 10.0 mi East 19.6 mph 24.2 mph N/A   Overcast
3:15 PM 42.8 °F 34.0 °F 35.6 °F 76% 29.94 in 10.0 mi East 20.7 mph 27.6 mph N/A   Overcast
3:35 PM 41.0 °F 31.6 °F 33.8 °F 76% 29.94 in 10.0 mi East 20.7 mph 26.5 mph N/A   Overcast